This is the latest recevied weather packets stored in our database for station/object NE1CU. If no packets are shown the sender has not sent any weather packets the latest 1 day(s).
| Time | Temp. | Humidity | Pressure | Rain* | Wind** | Luminosity | Snow |
|---|---|---|---|---|---|---|---|
| 1778038973 | 16.67° C | 71% | 1010.9 hPa | 0 mm | 0.89 m/s, 173° | 0 W/m² | - |
| 1778038670 | 16.67° C | 71% | 1011 hPa | 0 mm | 0.45 m/s, 152° | 0 W/m² | - |
| 1778038367 | 16.67° C | 71% | 1011 hPa | 0 mm | 0.89 m/s, 143° | 0 W/m² | - |
| 1778038064 | 16.67° C | 71% | 1010.9 hPa | 0 mm | 1.34 m/s, 174° | 0 W/m² | - |
| 1778037761 | 16.67° C | 71% | 1010.8 hPa | 0 mm | 0.45 m/s, 125° | 0 W/m² | - |
| 1778037458 | 16.11° C | 71% | 1010.8 hPa | 0 mm | 0.89 m/s, 153° | 0 W/m² | - |
| 1778037155 | 16.11° C | 71% | 1010.9 hPa | 0 mm | 0.89 m/s, 227° | 0 W/m² | - |
| 1778036853 | 16.11° C | 71% | 1011 hPa | 0 mm | 0.89 m/s, 205° | 0 W/m² | - |
| 1778036550 | 16.11° C | 71% | 1011 hPa | 0 mm | 0.45 m/s, 111° | 0 W/m² | - |
| 1778036247 | 16.11° C | 70% | 1010.9 hPa | 0 mm | 1.34 m/s, 208° | 0 W/m² | - |
| 1778035944 | 16.11° C | 70% | 1011 hPa | 0 mm | 1.34 m/s, 213° | 0 W/m² | - |
| 1778035641 | 16.11° C | 70% | 1011 hPa | 0 mm | 0.89 m/s, 188° | 0 W/m² | - |
| 1778035337 | 16.11° C | 70% | 1011 hPa | 0 mm | 1.34 m/s, 258° | 0 W/m² | - |
| 1778035033 | 16.11° C | 69% | 1011 hPa | 0 mm | 0.89 m/s, 154° | 0 W/m² | - |
| 1778034731 | 16.11° C | 69% | 1011 hPa | 0 mm | 2.24 m/s, 202° | 0 W/m² | - |
| 1778034428 | 16.67° C | 69% | 1011.2 hPa | 0 mm | 1.34 m/s, 152° | 0 W/m² | - |
| 1778034125 | 16.67° C | 68% | 1011 hPa | 0 mm | 0.45 m/s, 55° | 0 W/m² | - |
| 1778033823 | 16.67° C | 68% | 1011 hPa | 0 mm | 2.68 m/s, 152° | 0 W/m² | - |
| 1778033520 | 16.67° C | 67% | 1010.8 hPa | 0 mm | 1.79 m/s, 237° | 0 W/m² | - |
| 1778033217 | 16.67° C | 66% | 1010.8 hPa | 0 mm | 0.89 m/s, 334° | 0 W/m² | - |
| 1778032914 | 17.22° C | 66% | 1010.6 hPa | 0 mm | 1.34 m/s, 247° | 0 W/m² | - |
| 1778032612 | 17.22° C | 66% | 1010.6 hPa | 0 mm | 0.89 m/s, 151° | 0 W/m² | - |
| 1778032309 | 17.22° C | 65% | 1010.5 hPa | 0 mm | 0.89 m/s, 131° | 0 W/m² | - |
| 1778032006 | 17.22° C | 65% | 1010.6 hPa | 0 mm | 1.79 m/s, 115° | 0 W/m² | - |
| 1778031702 | 17.22° C | 65% | 1010.5 hPa | 0 mm | 0.89 m/s, 70° | 0 W/m² | - |
* Rain latest hour (hover to see other rain measurements)
** Current wind speed in m/s (hover to see current wind gust speed)